Year,Month,Day,Hour,Minute,Value (Times are PST for temperature in C)
2014,02,26,00,00,1.90
2014,02,26,00,01,1.90
2014,02,26,00,02,1.90
2014,02,26,00,03,1.90
2014,02,26,00,04,1.90
2014,02,26,00,05,1.90
2014,02,26,00,06,1.80
2014,02,26,00,07,1.80
2014,02,26,00,08,1.80
2014,02,26,00,09,1.70
2014,02,26,00,10,1.70
2014,02,26,00,11,1.70
2014,02,26,00,12,1.70
2014,02,26,00,13,1.70
2014,02,26,00,14,1.70
2014,02,26,00,15,1.70
2014,02,26,00,16,1.70
2014,02,26,00,17,1.70
2014,02,26,00,18,1.70
2014,02,26,00,19,1.80
2014,02,26,00,20,1.80
2014,02,26,00,21,1.80
2014,02,26,00,22,1.90
2014,02,26,00,23,1.90
2014,02,26,00,24,1.90
2014,02,26,00,25,1.90
2014,02,26,00,26,1.90
2014,02,26,00,27,1.90
2014,02,26,00,28,1.90
2014,02,26,00,29,1.90
2014,02,26,00,30,1.90
2014,02,26,00,31,1.90
2014,02,26,00,32,1.90
2014,02,26,00,33,1.90
2014,02,26,00,34,2.00
2014,02,26,00,35,2.00
2014,02,26,00,36,2.00
2014,02,26,00,37,2.00
2014,02,26,00,38,2.00
2014,02,26,00,39,2.00
2014,02,26,00,40,2.00
2014,02,26,00,41,2.00
2014,02,26,00,42,2.00
2014,02,26,00,43,2.00
2014,02,26,00,44,2.00
2014,02,26,00,45,2.00
2014,02,26,00,46,2.00
2014,02,26,00,47,2.00
2014,02,26,00,48,2.00
2014,02,26,00,49,1.90
2014,02,26,00,50,1.90
2014,02,26,00,51,1.90
2014,02,26,00,52,1.80
2014,02,26,00,53,1.80
2014,02,26,00,54,1.80
2014,02,26,00,55,1.80
2014,02,26,00,56,1.80
2014,02,26,00,57,1.80
2014,02,26,00,58,1.80
2014,02,26,00,59,1.90
2014,02,26,01,00,1.90
2014,02,26,01,01,1.90
2014,02,26,01,02,1.90
2014,02,26,01,03,1.80
2014,02,26,01,04,1.80
2014,02,26,01,05,1.80
2014,02,26,01,06,1.80
2014,02,26,01,07,1.80
2014,02,26,01,08,1.70
2014,02,26,01,09,1.70
2014,02,26,01,10,1.60
2014,02,26,01,11,1.60
2014,02,26,01,12,1.60
2014,02,26,01,13,1.60
2014,02,26,01,14,1.50
2014,02,26,01,15,1.50
2014,02,26,01,16,1.50
2014,02,26,01,17,1.50
2014,02,26,01,18,1.40
2014,02,26,01,19,1.40
2014,02,26,01,20,1.40
2014,02,26,01,21,1.30
2014,02,26,01,22,1.30
2014,02,26,01,23,1.30
2014,02,26,01,24,1.30
2014,02,26,01,25,1.30
2014,02,26,01,26,1.30
2014,02,26,01,27,1.30
2014,02,26,01,28,1.30
2014,02,26,01,29,1.30
2014,02,26,01,30,1.30
2014,02,26,01,31,1.30
2014,02,26,01,32,1.40
2014,02,26,01,33,1.40
2014,02,26,01,34,1.40
2014,02,26,01,35,1.50
2014,02,26,01,36,1.50
2014,02,26,01,37,1.60
2014,02,26,01,38,1.60
2014,02,26,01,39,1.70
2014,02,26,01,40,1.70
2014,02,26,01,41,1.70
2014,02,26,01,42,1.70
2014,02,26,01,43,1.70
2014,02,26,01,44,1.70
2014,02,26,01,45,1.70
2014,02,26,01,46,1.70
2014,02,26,01,47,1.70
2014,02,26,01,48,1.70
2014,02,26,01,49,1.70
2014,02,26,01,50,1.70
2014,02,26,01,51,1.60
2014,02,26,01,52,1.60
2014,02,26,01,53,1.50
2014,02,26,01,54,1.50
2014,02,26,01,55,1.50
2014,02,26,01,56,1.50
2014,02,26,01,57,1.50
2014,02,26,01,58,1.40
2014,02,26,01,59,1.40
2014,02,26,02,00,1.40
2014,02,26,02,01,1.40
2014,02,26,02,02,1.40
2014,02,26,02,03,1.40
2014,02,26,02,04,1.40
2014,02,26,02,05,1.40
2014,02,26,02,06,1.40
2014,02,26,02,07,1.40
2014,02,26,02,08,1.50
2014,02,26,02,09,1.50
2014,02,26,02,10,1.50
2014,02,26,02,11,1.50
2014,02,26,02,12,1.50
2014,02,26,02,13,1.50
2014,02,26,02,14,1.50
2014,02,26,02,15,1.50
2014,02,26,02,16,1.40
2014,02,26,02,17,1.40
2014,02,26,02,18,1.40
2014,02,26,02,19,1.40
2014,02,26,02,20,1.50
2014,02,26,02,21,1.50
2014,02,26,02,22,1.50
2014,02,26,02,23,1.60
2014,02,26,02,24,1.60
2014,02,26,02,25,1.70
2014,02,26,02,26,1.80
2014,02,26,02,27,1.80
2014,02,26,02,28,1.80
2014,02,26,02,29,1.90
2014,02,26,02,30,1.90
2014,02,26,02,31,1.90
2014,02,26,02,32,2.00
2014,02,26,02,33,2.00
2014,02,26,02,34,2.00
2014,02,26,02,35,2.10
2014,02,26,02,36,2.10
2014,02,26,02,37,2.10
2014,02,26,02,38,2.10
2014,02,26,02,39,2.20
2014,02,26,02,40,2.20
2014,02,26,02,41,2.20
2014,02,26,02,42,2.20
2014,02,26,02,43,2.20
2014,02,26,02,44,2.10
2014,02,26,02,45,2.10
2014,02,26,02,46,2.00
2014,02,26,02,47,2.00
2014,02,26,02,48,1.90
2014,02,26,02,49,1.80
2014,02,26,02,50,1.80
2014,02,26,02,51,1.80
2014,02,26,02,52,1.80
2014,02,26,02,53,1.70
2014,02,26,02,54,1.70
2014,02,26,02,55,1.70
2014,02,26,02,56,1.70
2014,02,26,02,57,1.70
2014,02,26,02,58,1.70
2014,02,26,02,59,1.70
2014,02,26,03,00,1.70
2014,02,26,03,01,1.70
2014,02,26,03,02,1.80
2014,02,26,03,03,1.80
2014,02,26,03,04,1.80
2014,02,26,03,05,1.80
2014,02,26,03,06,1.90
2014,02,26,03,07,1.90
2014,02,26,03,08,1.90
2014,02,26,03,09,1.90
2014,02,26,03,10,1.90
2014,02,26,03,11,1.80
2014,02,26,03,12,1.80
2014,02,26,03,13,1.80
2014,02,26,03,14,1.80
2014,02,26,03,15,1.70
2014,02,26,03,16,1.60
2014,02,26,03,17,1.60
2014,02,26,03,18,1.60
2014,02,26,03,19,1.50
2014,02,26,03,20,1.50
2014,02,26,03,21,1.50
2014,02,26,03,22,1.50
2014,02,26,03,23,1.50
2014,02,26,03,24,1.50
2014,02,26,03,25,1.50
2014,02,26,03,26,1.50
2014,02,26,03,27,1.50
2014,02,26,03,28,1.50
2014,02,26,03,29,1.50
2014,02,26,03,30,1.40
2014,02,26,03,31,1.40
2014,02,26,03,32,1.40
2014,02,26,03,33,1.40
2014,02,26,03,34,1.40
2014,02,26,03,35,1.40
2014,02,26,03,36,1.40
2014,02,26,03,37,1.40
2014,02,26,03,38,1.40
2014,02,26,03,39,1.40
2014,02,26,03,40,1.40
2014,02,26,03,41,1.30
2014,02,26,03,42,1.30
2014,02,26,03,43,1.30
2014,02,26,03,44,1.30
2014,02,26,03,45,1.30
2014,02,26,03,46,1.30
2014,02,26,03,47,1.20
2014,02,26,03,48,1.20
2014,02,26,03,49,1.20
2014,02,26,03,50,1.20
2014,02,26,03,51,1.20
2014,02,26,03,52,1.20
2014,02,26,03,53,1.20
2014,02,26,03,54,1.20
2014,02,26,03,55,1.20
2014,02,26,03,56,1.20
2014,02,26,03,57,1.30
2014,02,26,03,58,1.30
2014,02,26,03,59,1.40
2014,02,26,04,00,1.40
2014,02,26,04,01,1.40
2014,02,26,04,02,1.40
2014,02,26,04,03,1.40
2014,02,26,04,04,1.40
2014,02,26,04,05,1.40
2014,02,26,04,06,1.40
2014,02,26,04,07,1.40
2014,02,26,04,08,1.40
2014,02,26,04,09,1.40
2014,02,26,04,10,1.40
2014,02,26,04,11,1.40
2014,02,26,04,12,1.40
2014,02,26,04,13,1.40
2014,02,26,04,14,1.40
2014,02,26,04,15,1.40
2014,02,26,04,16,1.40
2014,02,26,04,17,1.40
2014,02,26,04,18,1.40
2014,02,26,04,19,1.40
2014,02,26,04,20,1.40
2014,02,26,04,21,1.40
2014,02,26,04,22,1.40
2014,02,26,04,23,1.40
2014,02,26,04,24,1.40
2014,02,26,04,25,1.30
2014,02,26,04,26,1.30
2014,02,26,04,27,1.30
2014,02,26,04,28,1.30
2014,02,26,04,29,1.30
2014,02,26,04,30,1.40
2014,02,26,04,31,1.40
2014,02,26,04,32,1.50
2014,02,26,04,33,1.60
2014,02,26,04,34,1.60
2014,02,26,04,35,1.60
2014,02,26,04,36,1.60
2014,02,26,04,37,1.60
2014,02,26,04,38,1.60
2014,02,26,04,39,1.70
2014,02,26,04,40,1.70
2014,02,26,04,41,1.70
2014,02,26,04,42,1.70
2014,02,26,04,43,1.70
2014,02,26,04,44,1.60
2014,02,26,04,45,1.60
2014,02,26,04,46,1.60
2014,02,26,04,47,1.60
2014,02,26,04,48,1.60
2014,02,26,04,49,1.60
2014,02,26,04,50,1.60
2014,02,26,04,51,1.70
2014,02,26,04,52,1.70
2014,02,26,04,53,1.70
2014,02,26,04,54,1.80
2014,02,26,04,55,1.80
2014,02,26,04,56,1.80
2014,02,26,04,57,1.80
2014,02,26,04,58,1.90
2014,02,26,04,59,1.90
2014,02,26,05,00,1.90
2014,02,26,05,01,1.90
2014,02,26,05,02,1.90
2014,02,26,05,03,1.80
2014,02,26,05,04,1.80
2014,02,26,05,05,1.80
2014,02,26,05,06,1.90
2014,02,26,05,07,1.90
2014,02,26,05,08,1.90
2014,02,26,05,09,1.80
2014,02,26,05,10,1.80
2014,02,26,05,11,1.80
2014,02,26,05,12,1.80
2014,02,26,05,13,1.80
2014,02,26,05,14,1.80
2014,02,26,05,15,1.80
2014,02,26,05,16,1.90
2014,02,26,05,17,2.00
2014,02,26,05,18,2.00
2014,02,26,05,19,2.10
2014,02,26,05,20,2.10
2014,02,26,05,21,2.20
2014,02,26,05,22,2.20
2014,02,26,05,23,2.20
2014,02,26,05,24,2.20
2014,02,26,05,25,2.20
2014,02,26,05,26,2.30
2014,02,26,05,27,2.30
2014,02,26,05,28,2.30
2014,02,26,05,29,2.30
2014,02,26,05,30,2.30
2014,02,26,05,31,2.40
2014,02,26,05,32,2.40
2014,02,26,05,33,2.40
2014,02,26,05,34,2.40
2014,02,26,05,35,2.50
2014,02,26,05,36,2.40
2014,02,26,05,37,2.40
2014,02,26,05,38,2.30
2014,02,26,05,39,2.20
2014,02,26,05,40,2.10
2014,02,26,05,41,2.00
2014,02,26,05,42,1.90
2014,02,26,05,43,1.90
2014,02,26,05,44,1.80
2014,02,26,05,45,1.80
2014,02,26,05,46,1.80
2014,02,26,05,47,1.80
2014,02,26,05,48,1.80
2014,02,26,05,49,1.80
2014,02,26,05,50,1.80
2014,02,26,05,51,1.70
2014,02,26,05,52,1.70
2014,02,26,05,53,1.70
2014,02,26,05,54,1.70
2014,02,26,05,55,1.70
2014,02,26,05,56,1.70
2014,02,26,05,57,1.70
2014,02,26,05,58,1.70
2014,02,26,05,59,1.70
2014,02,26,06,00,1.70
2014,02,26,06,01,1.60
2014,02,26,06,02,1.60
2014,02,26,06,03,1.60
2014,02,26,06,04,1.60
2014,02,26,06,05,1.60
2014,02,26,06,06,1.60
2014,02,26,06,07,1.60
2014,02,26,06,08,1.50
2014,02,26,06,09,1.50
2014,02,26,06,10,1.50
2014,02,26,06,11,1.50
2014,02,26,06,12,1.50
2014,02,26,06,13,1.50
2014,02,26,06,14,1.60
2014,02,26,06,15,1.60
2014,02,26,06,16,1.60
2014,02,26,06,17,1.60
2014,02,26,06,18,1.60
2014,02,26,06,19,1.60
2014,02,26,06,20,1.60
2014,02,26,06,21,1.60
2014,02,26,06,22,1.60
2014,02,26,06,23,1.50
2014,02,26,06,24,1.50
2014,02,26,06,25,1.50
2014,02,26,06,26,1.40
2014,02,26,06,27,1.40
2014,02,26,06,28,1.30
2014,02,26,06,29,1.30
2014,02,26,06,30,1.30
2014,02,26,06,31,1.20
2014,02,26,06,32,1.20
2014,02,26,06,33,1.20
2014,02,26,06,34,1.20
2014,02,26,06,35,1.20
2014,02,26,06,36,1.20
2014,02,26,06,37,1.20
2014,02,26,06,38,1.20
2014,02,26,06,39,1.10
2014,02,26,06,40,1.10
2014,02,26,06,41,1.10
2014,02,26,06,42,1.10
2014,02,26,06,43,1.10
2014,02,26,06,44,1.20
2014,02,26,06,45,1.20
2014,02,26,06,46,1.20
2014,02,26,06,47,1.20
2014,02,26,06,48,1.10
2014,02,26,06,49,1.10
2014,02,26,06,50,1.10
2014,02,26,06,51,1.10
2014,02,26,06,52,1.10
2014,02,26,06,53,1.00
2014,02,26,06,54,1.00
2014,02,26,06,55,0.90
2014,02,26,06,56,0.90
2014,02,26,06,57,0.90
2014,02,26,06,58,0.90
2014,02,26,06,59,0.90
2014,02,26,07,00,0.90
2014,02,26,07,01,0.90
2014,02,26,07,02,0.90
2014,02,26,07,03,1.00
2014,02,26,07,04,1.00
2014,02,26,07,05,1.00
2014,02,26,07,06,1.00
2014,02,26,07,07,1.00
2014,02,26,07,08,1.00
2014,02,26,07,09,1.00
2014,02,26,07,10,1.00
2014,02,26,07,11,1.00
2014,02,26,07,12,1.10
2014,02,26,07,13,1.10
2014,02,26,07,14,1.10
2014,02,26,07,15,1.10
2014,02,26,07,16,1.10
2014,02,26,07,17,1.10
2014,02,26,07,18,1.10
2014,02,26,07,19,1.10
2014,02,26,07,20,1.10
2014,02,26,07,21,1.10
2014,02,26,07,22,1.10
2014,02,26,07,23,1.10
2014,02,26,07,24,1.10
2014,02,26,07,25,1.20
2014,02,26,07,26,1.20
2014,02,26,07,27,1.20
2014,02,26,07,28,1.20
2014,02,26,07,29,1.20
2014,02,26,07,30,1.20
2014,02,26,07,31,1.20
2014,02,26,07,32,1.20
2014,02,26,07,33,1.20
2014,02,26,07,34,1.20
2014,02,26,07,35,1.20
2014,02,26,07,36,1.20
2014,02,26,07,37,1.20
2014,02,26,07,38,1.30
2014,02,26,07,39,1.30
2014,02,26,07,40,1.30
2014,02,26,07,41,1.30
2014,02,26,07,42,1.30
2014,02,26,07,43,1.40
2014,02,26,07,44,1.40
2014,02,26,07,45,1.40
2014,02,26,07,46,1.40
2014,02,26,07,47,1.40
2014,02,26,07,48,1.40
2014,02,26,07,49,1.50
2014,02,26,07,50,1.50
2014,02,26,07,51,1.50
2014,02,26,07,52,1.50
2014,02,26,07,53,1.50
2014,02,26,07,54,1.60
2014,02,26,07,55,1.60
2014,02,26,07,56,1.70
2014,02,26,07,57,1.70
2014,02,26,07,58,1.70
2014,02,26,07,59,1.80
2014,02,26,08,00,1.80
2014,02,26,08,01,1.80
2014,02,26,08,02,1.90
2014,02,26,08,03,1.90
2014,02,26,08,04,2.00
2014,02,26,08,05,2.00
2014,02,26,08,06,2.10
2014,02,26,08,07,2.10
2014,02,26,08,08,2.20
2014,02,26,08,09,2.20
2014,02,26,08,10,2.30
2014,02,26,08,11,2.30
2014,02,26,08,12,2.30
2014,02,26,08,13,2.40
2014,02,26,08,14,2.40
2014,02,26,08,15,2.40
2014,02,26,08,16,2.50
2014,02,26,08,17,2.50
2014,02,26,08,18,2.60
2014,02,26,08,19,2.60
2014,02,26,08,20,2.70
2014,02,26,08,21,2.70
2014,02,26,08,22,2.80
2014,02,26,08,23,2.80
2014,02,26,08,24,2.80
2014,02,26,08,25,2.90
2014,02,26,08,26,2.90
2014,02,26,08,27,2.90
2014,02,26,08,28,2.90
2014,02,26,08,29,3.00
2014,02,26,08,30,3.00
2014,02,26,08,31,3.10
2014,02,26,08,32,3.10
2014,02,26,08,33,3.20
2014,02,26,08,34,3.20
2014,02,26,08,35,3.30
2014,02,26,08,36,3.30
2014,02,26,08,37,3.30
2014,02,26,08,38,3.40
2014,02,26,08,39,3.40
2014,02,26,08,40,3.40
2014,02,26,08,41,3.40
2014,02,26,08,42,3.40
2014,02,26,08,43,3.40
2014,02,26,08,44,3.40
2014,02,26,08,45,3.40
2014,02,26,08,46,3.40
2014,02,26,08,47,3.40
2014,02,26,08,48,3.40
2014,02,26,08,49,3.40
2014,02,26,08,50,3.40
2014,02,26,08,51,3.40
2014,02,26,08,52,3.40
2014,02,26,08,53,3.40
2014,02,26,08,54,3.40
2014,02,26,08,55,3.40
2014,02,26,08,56,3.40
2014,02,26,08,57,3.50
2014,02,26,08,58,3.50
2014,02,26,08,59,3.50
2014,02,26,09,00,3.50
2014,02,26,09,01,3.60
2014,02,26,09,02,3.60
2014,02,26,09,03,3.60
2014,02,26,09,04,3.60
2014,02,26,09,05,3.60
2014,02,26,09,06,3.70
2014,02,26,09,07,3.70
2014,02,26,09,08,3.70
2014,02,26,09,09,3.70
2014,02,26,09,10,3.70
2014,02,26,09,11,3.80
2014,02,26,09,12,3.80
2014,02,26,09,13,3.80
2014,02,26,09,14,3.90
2014,02,26,09,15,4.00
2014,02,26,09,16,4.00
2014,02,26,09,17,4.10
2014,02,26,09,18,4.20
2014,02,26,09,19,4.20
2014,02,26,09,20,4.30
2014,02,26,09,21,4.30
2014,02,26,09,22,4.30
2014,02,26,09,23,4.30
2014,02,26,09,24,4.30
2014,02,26,09,25,4.40
2014,02,26,09,26,4.40
2014,02,26,09,27,4.40
2014,02,26,09,28,4.40
2014,02,26,09,29,4.40
2014,02,26,09,30,4.40
2014,02,26,09,31,4.50
2014,02,26,09,32,4.50
2014,02,26,09,33,4.60
2014,02,26,09,34,4.60
2014,02,26,09,35,4.60
2014,02,26,09,36,4.60
2014,02,26,09,37,4.60
2014,02,26,09,38,4.60
2014,02,26,09,39,4.50
2014,02,26,09,40,4.50
2014,02,26,09,41,4.40
2014,02,26,09,42,4.40
2014,02,26,09,43,4.40
2014,02,26,09,44,4.40
2014,02,26,09,45,4.30
2014,02,26,09,46,4.40
2014,02,26,09,47,4.40
2014,02,26,09,48,4.40
2014,02,26,09,49,4.50
2014,02,26,09,50,4.50
2014,02,26,09,51,4.60
2014,02,26,09,52,4.60
2014,02,26,09,53,4.70
2014,02,26,09,54,4.80
2014,02,26,09,55,4.90
2014,02,26,09,56,5.00
2014,02,26,09,57,5.10
2014,02,26,09,58,5.10
2014,02,26,09,59,5.10
2014,02,26,10,00,5.00
2014,02,26,10,01,5.00
2014,02,26,10,02,5.00
2014,02,26,10,03,5.00
2014,02,26,10,04,5.10
2014,02,26,10,05,5.20
2014,02,26,10,06,5.30
2014,02,26,10,07,5.30
2014,02,26,10,08,5.30
2014,02,26,10,09,5.30
2014,02,26,10,10,5.30
2014,02,26,10,11,5.30
2014,02,26,10,12,5.30
2014,02,26,10,13,5.30
2014,02,26,10,14,5.20
2014,02,26,10,15,5.20
2014,02,26,10,16,5.10
2014,02,26,10,17,5.10
2014,02,26,10,18,5.10
2014,02,26,10,19,5.20
2014,02,26,10,20,5.30
2014,02,26,10,21,5.30
2014,02,26,10,22,5.40
2014,02,26,10,23,5.50
2014,02,26,10,24,5.50
2014,02,26,10,25,5.60
2014,02,26,10,26,5.70
2014,02,26,10,27,5.80
2014,02,26,10,28,5.80
2014,02,26,10,29,5.90
2014,02,26,10,30,5.90
2014,02,26,10,31,5.90
2014,02,26,10,32,5.80
2014,02,26,10,33,5.80
2014,02,26,10,34,5.80
2014,02,26,10,35,5.70
2014,02,26,10,36,5.70
2014,02,26,10,37,5.60
2014,02,26,10,38,5.60
2014,02,26,10,39,5.70
2014,02,26,10,40,5.70
2014,02,26,10,41,5.70
2014,02,26,10,42,5.70
2014,02,26,10,43,5.80
2014,02,26,10,44,5.80
2014,02,26,10,45,5.80
2014,02,26,10,46,5.70
2014,02,26,10,47,5.70
2014,02,26,10,48,5.60
2014,02,26,10,49,5.60
2014,02,26,10,50,5.60
2014,02,26,10,51,5.60
2014,02,26,10,52,5.60
2014,02,26,10,53,5.60
2014,02,26,10,54,5.60
2014,02,26,10,55,5.70
2014,02,26,10,56,5.70
2014,02,26,10,57,5.70
2014,02,26,10,58,5.70
2014,02,26,10,59,5.80
2014,02,26,11,00,5.90
2014,02,26,11,01,6.00
2014,02,26,11,02,6.10
2014,02,26,11,03,6.20
2014,02,26,11,04,6.20
2014,02,26,11,05,6.30
2014,02,26,11,06,6.30
2014,02,26,11,07,6.40
2014,02,26,11,08,6.40
2014,02,26,11,09,6.40
2014,02,26,11,10,6.40
2014,02,26,11,11,6.40
2014,02,26,11,12,6.40
2014,02,26,11,13,6.30
2014,02,26,11,14,6.30
2014,02,26,11,15,6.30
2014,02,26,11,16,6.30
2014,02,26,11,17,6.30
2014,02,26,11,18,6.30
2014,02,26,11,19,6.30
2014,02,26,11,20,6.40
2014,02,26,11,21,6.40
2014,02,26,11,22,6.50
2014,02,26,11,23,6.50
2014,02,26,11,24,6.60
2014,02,26,11,25,6.70
2014,02,26,11,26,6.70
2014,02,26,11,27,6.80
2014,02,26,11,28,6.80
2014,02,26,11,29,6.80
2014,02,26,11,30,6.80
2014,02,26,11,31,6.80
2014,02,26,11,32,6.80
2014,02,26,11,33,6.80
2014,02,26,11,34,6.80
2014,02,26,11,35,6.80
2014,02,26,11,36,6.80
2014,02,26,11,37,6.80
2014,02,26,11,38,6.80
2014,02,26,11,39,6.80
2014,02,26,11,40,6.80
2014,02,26,11,41,6.70
2014,02,26,11,42,6.60
2014,02,26,11,43,6.50
2014,02,26,11,44,6.40
2014,02,26,11,45,6.40
2014,02,26,11,46,6.50
2014,02,26,11,47,6.60
2014,02,26,11,48,6.60
2014,02,26,11,49,6.60
2014,02,26,11,50,6.60
2014,02,26,11,51,6.60
2014,02,26,11,52,6.70
2014,02,26,11,53,6.70
2014,02,26,11,54,6.80
2014,02,26,11,55,6.70
2014,02,26,11,56,6.60
2014,02,26,11,57,6.50
2014,02,26,11,58,6.50
2014,02,26,11,59,6.50
2014,02,26,12,00,6.40
2014,02,26,12,01,6.50
2014,02,26,12,02,6.50
2014,02,26,12,03,6.40
2014,02,26,12,04,6.40
2014,02,26,12,05,6.40
2014,02,26,12,06,6.40
2014,02,26,12,07,6.40
2014,02,26,12,08,6.40
2014,02,26,12,09,6.40
2014,02,26,12,10,6.30
2014,02,26,12,11,6.40
2014,02,26,12,12,6.40
2014,02,26,12,13,6.30
2014,02,26,12,14,6.30
2014,02,26,12,15,6.30
2014,02,26,12,16,6.30
2014,02,26,12,17,6.30
2014,02,26,12,18,6.30
2014,02,26,12,19,6.40
2014,02,26,12,20,6.50
2014,02,26,12,21,6.60
2014,02,26,12,22,6.70
2014,02,26,12,23,6.80
2014,02,26,12,24,6.90
2014,02,26,12,25,7.00
2014,02,26,12,26,7.00
2014,02,26,12,27,7.10
2014,02,26,12,28,7.20
2014,02,26,12,29,7.30
2014,02,26,12,30,7.40
2014,02,26,12,31,7.50
2014,02,26,12,32,7.60
2014,02,26,12,33,7.70
2014,02,26,12,34,7.80
2014,02,26,12,35,7.80
2014,02,26,12,36,7.90
2014,02,26,12,37,8.00
2014,02,26,12,38,8.10
2014,02,26,12,39,8.20
2014,02,26,12,40,8.20
2014,02,26,12,41,8.20
2014,02,26,12,42,8.30
2014,02,26,12,43,8.30
2014,02,26,12,44,8.30
2014,02,26,12,45,8.30
2014,02,26,12,46,8.30
2014,02,26,12,47,8.30
2014,02,26,12,48,8.30
2014,02,26,12,49,8.30
2014,02,26,12,50,8.30
2014,02,26,12,51,8.30
2014,02,26,12,52,8.30
2014,02,26,12,53,8.20
2014,02,26,12,54,8.20
2014,02,26,12,55,8.20
2014,02,26,12,56,8.20
2014,02,26,12,57,8.10
2014,02,26,12,58,8.10
2014,02,26,12,59,8.10
2014,02,26,13,00,8.10
2014,02,26,13,01,8.10
2014,02,26,13,02,8.10
2014,02,26,13,03,8.10
2014,02,26,13,04,8.10
2014,02,26,13,05,8.10
2014,02,26,13,06,8.10
2014,02,26,13,07,8.10
2014,02,26,13,08,8.00
2014,02,26,13,09,7.90
2014,02,26,13,10,7.90
2014,02,26,13,11,7.80
2014,02,26,13,12,7.80
2014,02,26,13,13,7.80
2014,02,26,13,14,7.70
2014,02,26,13,15,7.70
2014,02,26,13,16,7.60
2014,02,26,13,17,7.60
2014,02,26,13,18,7.60
2014,02,26,13,19,7.60
2014,02,26,13,20,7.60
2014,02,26,13,21,7.60
2014,02,26,13,22,7.60
2014,02,26,13,23,7.60
2014,02,26,13,24,7.60
2014,02,26,13,25,7.60
2014,02,26,13,26,7.70
2014,02,26,13,27,7.70
2014,02,26,13,28,7.70
2014,02,26,13,29,7.70
2014,02,26,13,30,7.70
2014,02,26,13,31,7.70
2014,02,26,13,32,7.70
2014,02,26,13,33,7.70
2014,02,26,13,34,7.70
2014,02,26,13,35,7.70
2014,02,26,13,36,7.70
2014,02,26,13,37,7.70
2014,02,26,13,38,7.60
2014,02,26,13,39,7.70
2014,02,26,13,40,7.70
2014,02,26,13,41,7.60
2014,02,26,13,42,7.60
2014,02,26,13,43,7.60
2014,02,26,13,44,7.60
2014,02,26,13,45,7.60
2014,02,26,13,46,7.60
2014,02,26,13,47,7.70
2014,02,26,13,48,7.70
2014,02,26,13,49,7.70
2014,02,26,13,50,7.70
2014,02,26,13,51,7.70
2014,02,26,13,52,7.70
2014,02,26,13,53,7.70
2014,02,26,13,54,7.70
2014,02,26,13,55,7.70
2014,02,26,13,56,7.70
2014,02,26,13,57,7.70
2014,02,26,13,58,7.70
2014,02,26,13,59,7.70
2014,02,26,14,00,7.80
2014,02,26,14,01,7.80
2014,02,26,14,02,7.80
2014,02,26,14,03,7.80
2014,02,26,14,04,7.90
2014,02,26,14,05,7.90
2014,02,26,14,06,7.90
2014,02,26,14,07,7.90
2014,02,26,14,08,7.90
2014,02,26,14,09,7.90
2014,02,26,14,10,7.90
2014,02,26,14,11,7.90
2014,02,26,14,12,7.90
2014,02,26,14,13,7.90
2014,02,26,14,14,7.90
2014,02,26,14,15,7.90
2014,02,26,14,16,7.90
2014,02,26,14,17,7.90
2014,02,26,14,18,7.90
2014,02,26,14,19,7.90
2014,02,26,14,20,7.90
2014,02,26,14,21,7.90
2014,02,26,14,22,7.80
2014,02,26,14,23,7.80
2014,02,26,14,24,7.90
2014,02,26,14,25,7.90
2014,02,26,14,26,7.90
2014,02,26,14,27,7.90
2014,02,26,14,28,7.90
2014,02,26,14,29,8.00
2014,02,26,14,30,8.00
2014,02,26,14,31,8.10
2014,02,26,14,32,8.10
2014,02,26,14,33,8.10
2014,02,26,14,34,8.10
2014,02,26,14,35,8.00
2014,02,26,14,36,8.10
2014,02,26,14,37,8.10
2014,02,26,14,38,8.20
2014,02,26,14,39,8.20
2014,02,26,14,40,8.20
2014,02,26,14,41,8.30
2014,02,26,14,42,8.30
2014,02,26,14,43,8.30
2014,02,26,14,44,8.30
2014,02,26,14,45,8.30
2014,02,26,14,46,8.30
2014,02,26,14,47,8.30
2014,02,26,14,48,8.40
2014,02,26,14,49,8.40
2014,02,26,14,50,8.40
2014,02,26,14,51,8.30
2014,02,26,14,52,8.30
2014,02,26,14,53,8.30
2014,02,26,14,54,8.30
2014,02,26,14,55,8.30
2014,02,26,14,56,8.30
2014,02,26,14,57,8.30
2014,02,26,14,58,8.30
2014,02,26,14,59,8.30
2014,02,26,15,00,8.30
2014,02,26,15,01,8.30
2014,02,26,15,02,8.20
2014,02,26,15,03,8.20
2014,02,26,15,04,8.20
2014,02,26,15,05,8.10
2014,02,26,15,06,8.10
2014,02,26,15,07,8.00
2014,02,26,15,08,8.00
2014,02,26,15,09,7.90
2014,02,26,15,10,7.80
2014,02,26,15,11,7.80
2014,02,26,15,12,7.80
2014,02,26,15,13,7.80
2014,02,26,15,14,7.80
2014,02,26,15,15,7.80
2014,02,26,15,16,7.80
2014,02,26,15,17,7.80
2014,02,26,15,18,7.80
2014,02,26,15,19,7.70
2014,02,26,15,20,7.70
2014,02,26,15,21,7.70
2014,02,26,15,22,7.70
2014,02,26,15,23,7.60
2014,02,26,15,24,7.60
2014,02,26,15,25,7.60
2014,02,26,15,26,7.60
2014,02,26,15,27,7.70
2014,02,26,15,28,7.70
2014,02,26,15,29,7.70
2014,02,26,15,30,7.80
2014,02,26,15,31,7.80
2014,02,26,15,32,7.80
2014,02,26,15,33,7.80
2014,02,26,15,34,7.80
2014,02,26,15,35,7.80
2014,02,26,15,36,7.80
2014,02,26,15,37,7.80
2014,02,26,15,38,7.80
2014,02,26,15,39,7.70
2014,02,26,15,40,7.70
2014,02,26,15,41,7.70
2014,02,26,15,42,7.70
2014,02,26,15,43,7.70
2014,02,26,15,44,7.70
2014,02,26,15,45,7.80
2014,02,26,15,46,7.80
2014,02,26,15,47,7.80
2014,02,26,15,48,7.80
2014,02,26,15,49,7.80
2014,02,26,15,50,7.80
2014,02,26,15,51,7.80
2014,02,26,15,52,7.80
2014,02,26,15,53,7.90
2014,02,26,15,54,7.90
2014,02,26,15,55,7.90
2014,02,26,15,56,7.90
2014,02,26,15,57,7.90
2014,02,26,15,58,7.90
2014,02,26,15,59,7.90
2014,02,26,16,00,7.80
2014,02,26,16,01,7.80
2014,02,26,16,02,7.80
2014,02,26,16,03,7.80
2014,02,26,16,04,7.80
2014,02,26,16,05,7.80
2014,02,26,16,06,7.80
2014,02,26,16,07,7.80
2014,02,26,16,08,7.80
2014,02,26,16,09,7.80
2014,02,26,16,10,7.80
2014,02,26,16,11,7.80
2014,02,26,16,12,7.80
2014,02,26,16,13,7.80
2014,02,26,16,14,7.80
2014,02,26,16,15,7.80
2014,02,26,16,16,7.90
2014,02,26,16,17,7.90
2014,02,26,16,18,7.90
2014,02,26,16,19,7.90
2014,02,26,16,20,7.90
2014,02,26,16,21,7.90
2014,02,26,16,22,7.90
2014,02,26,16,23,7.90
2014,02,26,16,24,7.90
2014,02,26,16,25,7.90
2014,02,26,16,26,7.80
2014,02,26,16,27,7.80
2014,02,26,16,28,7.80
2014,02,26,16,29,7.80
2014,02,26,16,30,7.80
2014,02,26,16,31,7.70
2014,02,26,16,32,7.70
2014,02,26,16,33,7.70
2014,02,26,16,34,7.70
2014,02,26,16,35,7.70
2014,02,26,16,36,7.70
2014,02,26,16,37,7.70
2014,02,26,16,38,7.70
2014,02,26,16,39,7.70
2014,02,26,16,40,7.70
2014,02,26,16,41,7.70
2014,02,26,16,42,7.60
2014,02,26,16,43,7.60
2014,02,26,16,44,7.60
2014,02,26,16,45,7.60
2014,02,26,16,46,7.50
2014,02,26,16,47,7.50
2014,02,26,16,48,7.50
2014,02,26,16,49,7.50
2014,02,26,16,50,7.40
2014,02,26,16,51,7.40
2014,02,26,16,52,7.40
2014,02,26,16,53,7.40
2014,02,26,16,54,7.40
2014,02,26,16,55,7.40
2014,02,26,16,56,7.30
2014,02,26,16,57,7.30
2014,02,26,16,58,7.30
2014,02,26,16,59,7.30
2014,02,26,17,00,7.30
2014,02,26,17,01,7.30
2014,02,26,17,02,7.30
2014,02,26,17,03,7.30
2014,02,26,17,04,7.30
2014,02,26,17,05,7.30
2014,02,26,17,06,7.30
2014,02,26,17,07,7.20
2014,02,26,17,08,7.20
2014,02,26,17,09,7.10
2014,02,26,17,10,7.10
2014,02,26,17,11,7.10
2014,02,26,17,12,7.10
2014,02,26,17,13,7.00
2014,02,26,17,14,7.00
2014,02,26,17,15,6.90
2014,02,26,17,16,6.90
2014,02,26,17,17,6.90
2014,02,26,17,18,6.80
2014,02,26,17,19,6.80
2014,02,26,17,20,6.80
2014,02,26,17,21,6.80
2014,02,26,17,22,6.70
2014,02,26,17,23,6.70
2014,02,26,17,24,6.70
2014,02,26,17,25,6.70
2014,02,26,17,26,6.70
2014,02,26,17,27,6.70
2014,02,26,17,28,6.70
2014,02,26,17,29,6.60
2014,02,26,17,30,6.60
2014,02,26,17,31,6.60
2014,02,26,17,32,6.50
2014,02,26,17,33,6.50
2014,02,26,17,34,6.50
2014,02,26,17,35,6.40
2014,02,26,17,36,6.40
2014,02,26,17,37,6.40
2014,02,26,17,38,6.40
2014,02,26,17,39,6.40
2014,02,26,17,40,6.40
2014,02,26,17,41,6.30
2014,02,26,17,42,6.30
2014,02,26,17,43,6.30
2014,02,26,17,44,6.30
2014,02,26,17,45,6.20
2014,02,26,17,46,6.20
2014,02,26,17,47,6.20
2014,02,26,17,48,6.20
2014,02,26,17,49,6.20
2014,02,26,17,50,6.20
2014,02,26,17,51,6.20
2014,02,26,17,52,6.20
2014,02,26,17,53,6.10
2014,02,26,17,54,6.10
2014,02,26,17,55,6.10
2014,02,26,17,56,6.10
2014,02,26,17,57,6.10
2014,02,26,17,58,6.10
2014,02,26,17,59,6.00
2014,02,26,18,00,6.00
2014,02,26,18,01,6.00
2014,02,26,18,02,6.00
2014,02,26,18,03,5.90
2014,02,26,18,04,5.90
2014,02,26,18,05,5.90
2014,02,26,18,06,5.90